SCP
0 0 0 0 0 0 0 0 0 0 0 0 0 0 0 0 0 0 0 0 0 0 0 0 0 0 0 0 0 0 0 0 0 0 0 0 0 0 0 0 0 0 0 0
0 0 0 0 0 0 0 0 0 0 0 0 0 0 0 0 0 0 0 0 0 0 0 0 0 0 0 0 0 0 0 0 0 0 0 0 0 0 0 0 0 0 0 0
0 0 0 0 0 0 0 0 0 0 0 0 0 0 0 0 0 0 0 0 0 0 0 0 0 0 0 0 0 0 0 0 0 0 0 0 0 0 0 0 0 0 0 0
0 0 0 0 0 0 0 0 0 0 0 0 0 0 0 0 0 0 0 0 0 0 0 0 0 0 0 0 0 0 0 0 0 0 0 0 0 0 0 0 0 0 0 0
0 0 0 0 0 0 0 0 0 0 0 0 0 0 0 0 0 0 0 0 0 0 0 0 0 0 0 0 0 0 0 0 0 0 0 0 0 0 0 0 0 0 0 0
0 0 0 0 0 0 0 0 0 0 0 0 0 0 0 0 0 0 0 0 0 0 0 0 0 0 0 0 0 0 0 0 0 0 0 0 0 0 0 0 0 0 0 0
0 0 0 0 0 0 0 0 0 0 0 0 0 0 0 0 0 0 0 0 0 0 0 0 0 0 0 0 0 0 0 0 0 0 0 0 0 0 0 0 0 0 0 0
0 0 0 0 0 0 0 0 0 0 0 0 0 0 0 0 0 0 0 0 0 0 0 0 0 0 0 0 0 0 0 0 0 0 0 0 0 0 0 0 0 0 0 0
0 0 0 0 0 0 0 0 0 0 0 0 0 0 0 0 0 0 0 0 0 0 0 0 0 0 0 0 0 0 0 0 0 0 0 0 0 0 0 0 0 0 0 0
0 0 0 0 0 0 0 0 0 0 0 0 0 0 0 0 0 0 0 0 0 0 0 0 0 0 0 0 0 0 0 0 0 0 0 0 0 0 0 0 0 0 0 0
0 0 0 0 0 0 0 0 0 0 0 0 0 0 0 0 0 0 0 0 0 0 0 0 0 0 0 0 0 0 0 0 0 0 0 0 0 0 0 0 0 0 0 0
0 0 0 0 0 0 0 0 0 0 0 0 0 0 0 0 0 0 0 0 0 0 0 0 0 0 0 0 0 0 0 0 0 0 0 0 0 0 0 0 0 0 0 0
0 0 0 0 0 0 0 0 0 0 0 0 0 0 0 0 0 0 0 0 0 0 0 0 0 0 0 0 0 0 0 0 0 0 0 0 0 0 0 0 0 0 0 0
0 0 0 0 0 0 0 0 0 0 0 0 0 0 0 0 0 0 0 0 0 0 0 0 0 0 0 0 0 0 0 0 0 0 0 0 0 0 0 0 0 0 0 0
0 0 0 0 0 0 0 0 0 0 0 0 0 0 0 0 0 0 0 0 0 0 0 0 0 0 0 0 0 0 0 0 0 0 0 0 0 0 0 0 0 0 0 0
0 0 0 0 0 0 0 0 0 0 0 0 0 0 0 0 0 0 0 0 0 0 0 0 0 0 0 0 0 0 0 0 0 0 0 0 0 0 0 0 0 0 0 0
0 0 0 0 0 0 0 0 0 0 0 0 0 0 0 0 0 0 0 0 0 0 0 0 0 0 0 0 0 0 0 0 0 0 0 0 0 0 0 0 0 0 0 0
0 0 0 0 0 0 0 0 0 0 0 0 0 0 0 0 0 0 0 0 0 0 0 0 0 0 0 0 0 0 0 0 0 0 0 0 0 0 0 0 0 0 0 0
0 0 0 0 0 0 0 0 0 0 0 0 0 0 0 0 0 0 0 0 0 0 0 0 0 0 0 0 0 0 0 0 0 0 0 0 0 0 0 0 0 0 0 0
0 0 0 0 0 0 0 0 0 0 0 0 0 0 0 0 0 0 0 0 0 0 0 0 0 0 0 0 0 0 0 0 0 0 0 0 0 0 0 0 0 0 0 0
0 0 0 0 0 0 0 0 0 0 0 0 0 0 0 0 0 0 0 0 0 0 0 0 0 0 0 0 0 0 0 0 0 0 0 0 0 0 0 0 0 0 0 0
0 0 0 0 0 0 0 0 0 0 0 0 0 0 0 0 0 0 0 0 0 0 0 0 0 0 0 0 0 0 0 0 0 0 0 0 0 0 0 0 0 0 0 0
0 0 0 0 0 0 0 0 0 0 0 0 0 0 0 0 0 0 0 0 0 0 0 0 0 0 0 0 0 0 0 0 0 0 0 0 0 0 0 0 0 0 0 0
0 0 0 0 0 0 0 0 0 0 0 0 0 0 0 0 0 0 0 0 0 0 0 0 0 0 0 0 0 0 0 0 0 0 0 0 0 0 0 0 0 0 0 0
0 0 0 0 0 0 0 0 0 0 0 0 0 0 0 0 0 0 0 0 0 0 0 0 0 0 0 0 0 0 0 0 0 0 0 0 0 0 0 0 0 0 0 0
0 0 0 0 0 0 0 0 0 0 0 0 0 0 0 0 0 0 0 0 0 0 0 0 0 0 0 0 0 0 0 0 0 0 0 0 0 0 0 0 0 0 0 0
0 0 0 0 0 0 0 0 0 0 0 0 0 0 0 0 0 0 0 0 0 0 0 0 0 0 0 0 0 0 0 0 0 0 0 0 0 0 0 0 0 0 0 0
Wind_Speed
6 6 4 6 7 7 9 8 8 9 9 12 8 6 5 4 4 4 4 4 4 4 4 3 3 3 3 3 2 2 1 2 3 3 2 2 2 2 2 2 3 3 3 3
4 4 4 8 9 9 10 9 10 10 13 9 5 3 3 4 4 4 5 5 5 5 4 4 4 4 4 3 3 1 1 2 2 2 2 2 2 2 2 2 2 2 2 2
4 3 3 8 9 10 7 7 8 10 11 4 4 4 5 4 4 4 5 5 5 5 5 5 4 4 4 3 2 1 2 2 2 2 1 1 1 1 2 1 1 2 2 2
2 2 6 8 3 6 7 7 7 7 6 5 6 5 4 3 3 4 5 5 5 5 5 5 4 4 3 2 2 2 2 2 2 2 2 1 1 1 1 1 0 1 1 1
1 3 8 8 4 4 5 7 6 7 6 4 3 3 4 3 3 4 4 4 4 5 5 4 4 4 2 2 2 2 2 2 2 2 2 1 2 1 1 0 1 0 0 0
3 3 7 7 3 2 3 6 5 5 5 3 0 2 6 4 3 4 4 3 3 3 3 3 4 3 2 2 2 3 3 3 2 2 1 1 2 1 1 0 0 0 0 0
5 6 10 7 2 3 3 7 3 4 5 4 4 6 5 3 3 3 3 3 3 3 3 3 3 2 2 2 3 4 3 2 2 2 2 2 1 0 0 0 0 0 0 0
5 6 11 4 4 6 7 3 3 3 4 4 4 4 3 3 3 3 3 3 3 3 3 3 3 2 2 3 4 3 2 1 1 1 1 1 0 0 0 1 1 0 0 0
10 10 5 5 7 6 4 4 4 4 4 4 3 4 3 3 3 3 3 3 3 2 3 4 3 2 3 4 3 2 2 2 2 1 1 0 1 0 0 0 0 0 0 1
6 9 7 6 6 5 5 6 5 4 4 4 4 4 3 3 4 4 3 3 2 2 3 4 4 3 3 3 2 2 1 1 1 0 0 0 0 0 0 0 0 0 1 0
7 8 6 6 7 7 5 4 4 4 4 4 4 4 4 3 4 4 3 3 2 2 3 4 4 4 4 2 1 1 1 1 1 0 0 0 0 0 0 1 1 1 1 1
9 8 6 7 5 4 4 5 5 4 3 3 4 4 4 4 4 4 3 3 3 3 3 4 3 4 3 3 1 0 1 1 0 0 0 1 1 1 2 1 1 2 2 1
8 5 5 6 4 4 5 5 4 4 4 4 3 3 3 3 3 3 3 3 3 4 4 3 3 3 3 2 1 0 1 1 1 0 0 1 1 1 1 2 2 3 3 2
6 4 4 5 5 4 4 3 3 2 3 3 3 3 3 3 3 3 4 4 3 3 3 3 3 3 3 2 1 1 1 1 0 1 1 1 1 1 1 1 1 1 2 3
7 6 7 4 3 2 2 2 2 3 3 3 2 3 3 4 4 4 4 3 2 2 2 2 2 3 2 1 1 1 1 1 1 0 1 1 1 1 1 1 1 1 1 2
4 4 4 4 4 4 3 4 4 4 4 3 3 4 4 4 4 3 2 2 2 3 3 2 3 3 1 1 1 0 0 1 1 1 1 1 1 1 1 1 1 1 1 1
5 5 5 5 6 6 6 6 6 5 4 4 5 4 3 2 2 2 3 3 3 3 2 2 2 2 1 0 0 0 0 0 1 1 0 0 1 1 1 1 1 1 1 1
8 7 6 6 6 5 5 4 4 4 4 4 3 3 3 3 4 3 3 2 1 2 2 2 2 1 0 0 0 0 1 0 0 0 0 0 0 0 0 0 0 1 1 1
5 5 5 5 5 5 4 4 4 3 3 2 3 3 3 3 3 2 1 1 1 2 3 2 2 0 1 1 0 1 1 1 0 0 0 0 0 0 0 0 0 0 0 0
3 4 4 4 3 3 4 3 3 2 2 3 2 2 2 3 2 2 2 2 3 3 2 1 1 1 1 1 1 1 1 1 1 0 0 0 0 0 0 0 0 0 0 0
3 3 3 3 3 3 3 3 3 3 3 3 3 4 4 3 2 2 1 2 3 1 1 2 1 1 1 1 1 1 1 1 1 0 0 0 0 0 0 0 0 0 0 0
2 2 3 2 2 2 2 2 2 3 2 2 3 3 2 2 2 2 2 3 2 2 1 1 1 1 1 1 1 1 1 1 1 0 0 0 0 0 0 0 0 0 0 0
2 2 3 3 3 2 1 1 2 3 3 3 3 3 3 3 2 2 3 2 1 2 1 1 2 2 2 1 1 1 1 1 1 1 1 1 1 1 1 1 1 0 0 0
3 3 3 2 2 2 2 3 2 2 2 2 2 3 3 2 2 2 2 2 2 2 1 2 2 2 2 1 1 1 1 1 1 1 1 1 1 1 1 1 1 1 1 0
3 3 2 2 3 3 3 2 1 1 1 1 1 2 2 2 2 2 1 2 3 2 1 2 2 2 1 1 1 1 1 1 1 1 1 1 1 1 1 1 1 1 1 1
3 3 3 3 3 3 2 2 2 2 2 1 1 1 1 1 1 1 1 1 2 2 1 1 1 1 1 1 1 1 1 1 1 1 1 1 1 1 1 1 1 1 1 1
2 2 2 2 2 2 3 3 3 3 3 3 2 2 1 1 1 1 1 1 1 1 1 1 1 1 1 1 1 1 1 1 1 1 1 1 1 1 1 1 1 1 1 1
Wind_Direction
251 265 251 248 247 221 215 215 223 247 254 270 279 277 280 283 294 305 305 307 305 304 302 298 304 308 306 300 297 289 293 288 275 275 275 277 278 255 247 245 242 230 234 248
278 267 258 262 251 232 234 232 238 258 270 270 281 289 290 287 288 295 296 298 299 299 302 297 294 294 296 294 288 285 279 284 295 292 286 285 285 285 264 252 238 225 233 238
269 301 321 266 231 209 217 218 208 234 250 273 297 284 276 269 273 281 295 302 302 298 293 290 282 278 280 284 286 274 271 287 296 285 281 289 296 307 287 262 237 226 226 229
270 2 246 245 226 199 213 240 224 237 252 248 257 266 272 253 234 274 288 297 298 302 301 296 294 293 289 291 277 264 278 287 284 283 279 288 311 303 303 314 258 234 241 226
192 249 274 284 246 185 201 262 232 226 249 272 292 318 290 270 262 259 270 282 284 290 293 295 300 303 296 299 292 284 276 276 279 275 279 295 288 281 299 337 345 320 287 232
185 219 246 251 238 176 122 274 238 209 231 256 9 301 279 288 293 286 292 298 296 303 308 306 304 307 299 296 295 283 275 270 270 271 264 268 273 271 305 38 304 333 28 271
208 234 261 255 231 120 169 251 249 208 218 218 215 230 258 286 293 283 289 297 303 313 311 302 305 311 304 298 285 281 282 279 279 279 271 266 268 283 46 78 51 37 42 0
183 217 252 213 155 187 225 255 236 225 221 223 242 258 271 281 284 289 297 301 303 311 310 307 307 305 302 291 292 297 296 296 288 289 282 278 167 349 26 75 77 15 4 337
197 219 239 189 205 228 227 235 238 228 237 219 238 256 270 279 283 285 282 292 298 296 302 308 309 299 282 288 302 310 313 305 293 292 296 263 149 124 54 67 99 307 307 293
246 258 251 244 248 254 239 235 240 235 232 223 233 243 262 275 286 290 287 291 296 305 302 303 307 305 286 290 309 314 301 298 299 249 301 11 43 145 144 185 170 244 256 239
250 264 278 261 237 238 247 251 256 254 243 227 221 245 251 264 274 280 289 292 284 272 279 288 298 300 305 308 314 313 312 315 325 306 192 139 351 306 227 226 234 222 199 165
234 232 220 251 242 222 234 245 239 237 251 249 227 235 246 256 265 273 279 283 289 285 285 288 293 298 308 312 299 297 321 315 297 311 107 114 82 14 351 340 353 44 59 72
239 249 235 257 249 214 225 239 236 228 228 243 243 227 233 254 264 269 273 275 274 276 279 283 290 297 306 313 312 265 264 278 258 201 131 125 125 107 45 17 28 45 53 58
240 241 259 250 243 234 231 239 237 244 249 238 245 245 243 255 265 266 264 267 272 272 272 278 289 297 304 315 324 322 308 301 353 138 128 137 152 144 122 102 50 18 25 47
241 231 236 249 244 242 234 221 226 248 252 257 248 244 241 246 256 265 269 275 276 268 269 276 285 295 311 326 338 338 6 11 10 55 82 100 118 120 113 102 94 64 38 33
246 239 231 234 237 238 230 222 223 237 238 240 241 243 243 245 255 269 268 247 239 250 257 262 276 292 314 337 350 357 360 353 16 48 63 66 83 100 103 103 102 92 76 51
223 234 228 233 235 235 232 227 224 229 230 231 237 238 242 253 269 272 271 261 248 248 249 252 274 296 301 267 184 181 76 359 9 30 49 77 84 92 101 105 105 77 52 46
223 229 220 213 217 226 235 234 230 225 226 231 228 219 219 225 238 251 263 281 296 296 291 280 283 290 275 252 213 151 140 135 111 89 26 6 66 102 110 108 96 80 50 23
233 232 230 223 218 215 223 227 223 223 227 209 202 215 224 231 238 241 236 219 237 270 285 278 272 248 252 250 154 143 142 143 130 91 101 277 12 49 75 67 61 57 60 56
237 232 228 230 224 216 224 225 214 218 217 196 197 213 231 240 226 211 204 229 243 249 255 255 227 230 235 231 171 151 157 162 157 131 50 92 81 9 127 134 92 70 265 236
234 230 226 226 232 231 219 208 200 214 218 196 199 213 223 229 209 190 195 256 273 250 235 245 230 228 204 194 176 145 151 154 154 159 155 129 95 316 298 69 72 299 292 285
237 230 231 224 219 238 234 206 199 202 204 208 214 207 201 215 215 221 232 238 252 234 206 212 217 224 206 171 142 140 146 153 169 168 165 188 205 217 254 278 226 256 265 250
239 231 230 225 219 225 234 218 205 197 204 212 209 201 203 212 206 210 253 251 229 230 210 210 225 217 188 137 134 152 164 175 190 205 211 220 220 203 192 216 235 232 205 206
234 228 229 224 194 187 219 236 220 208 207 219 218 204 192 201 237 236 236 239 231 225 211 228 220 203 160 122 146 166 184 196 205 214 215 220 219 199 202 212 228 238 225 204
227 223 213 200 205 219 220 211 199 210 199 221 242 228 210 201 208 220 210 215 214 200 204 223 211 178 142 140 160 184 206 214 205 197 204 215 222 223 229 227 226 227 231 219
222 223 224 218 215 212 196 185 197 213 200 213 244 229 205 191 187 189 192 196 195 190 188 194 177 158 150 163 177 187 199 228 254 229 214 222 233 242 250 249 245 244 239 228
221 222 223 234 228 206 195 192 200 210 203 198 216 215 192 180 174 179 181 178 174 171 170 161 153 160 167 171 178 188 190 192 203 219 232 243 249 253 256 251 249 251 239 222